Regional Weather Roundup
Issued by NWS

Home | Current Version | Previous Version | Text Only | Print | Product List | Glossary On
Versions: 1 2 3 4 5 6 7 8 9 10 11 12 13 14 15 16 17 18 19 20 21 22 23 24 25 26 27 28 29 30 31 32 33 34 35 36 37 38 39 40 41 42 43 44 45 46 47 48 49 50
000
ASUS43 KDTX 250010
RWRMI
MICHIGAN HOURLY REGIONAL WEATHER ROUNDUP
NATIONAL WEATHER SERVICE DETROIT/PONTIAC MI
800 PM EDT WED AUG 24 2016

NOTE: "FAIR" INDICATES FEW OR NO CLOUDS BELOW 12,000 FEET WITH NO
SIGNIFICANT WEATHER AND/OR OBSTRUCTION TO VISIBILITY.

MIZ047>049-052>055-059>063-066>070-074>076-081>083-250100-
SOUTHEAST LOWER MICHIGAN

CITY           SKY/WX    TMP DP  RH WIND       PRES   REMARKS
ADRIAN         CLOUDY    76  75  97 SW13      29.99R
6HR MIN TEMP:  76; 6HR MAX TEMP:  83; 6HR PCP:  0.01;

ALMA           PTCLDY    78  73  83 SW5       29.93S
ANN ARBOR      LGT RAIN  77  74  90 S8        29.97R
BAD AXE        PTCLDY    74  71  91 S8        29.94S
6HR MIN TEMP:  72; 6HR MAX TEMP:  80;

CARO           CLEAR     77  72  84 S5        29.93S
DETROIT CITY   CLOUDY    75  74  96 SW9       29.97R
6HR MIN TEMP:  74; 6HR MAX TEMP:  83; 6HR PCP:  0.32;

DETROIT        CLOUDY    78  74  87 SW13      29.98R
6HR MIN TEMP:  75; 6HR MAX TEMP:  84; 6HR PCP:  0.21;

FLINT          MOCLDY    82  69  64 SW10      29.94S
6HR MIN TEMP:  79; 6HR MAX TEMP:  85; 6HR PCP: TRACE;

GROSSE ILE     CLOUDY    80  73  78 SW12G20   29.96R
6HR MIN TEMP:  78; 6HR MAX TEMP:  82;

HILLSDALE      CLOUDY    75  72  89 S9        29.98S
6HR MIN TEMP:  51; 6HR MAX TEMP:  84;

HOWELL         CLOUDY    76  72  87 S5        29.97R
6HR MIN TEMP:  76; 6HR MAX TEMP:  82;


CITY           SKY/WX    TMP DP  RH WIND       PRES   REMARKS
JACKSON        CLEAR     75  74  96 SW5       29.97S
6HR MIN TEMP:  73; 6HR MAX TEMP:  82; 6HR PCP:  0.88;

LAMBERTVILLE   CLOUDY    80  72  75 SW9       29.98S
6HR MIN TEMP:  80; 6HR MAX TEMP:  85;

LANSING        CLOUDY    77  70  79 SW9       29.95S
6HR MIN TEMP:  77; 6HR MAX TEMP:  82; 6HR PCP: TRACE;

LAPEER         FAIR      76  72  85 S9        29.95S
6HR MIN TEMP:  74; 6HR MAX TEMP:  82; 6HR PCP:  0.06;

MASON          CLOUDY    75  72  88 SW5       29.96S
MONROE         CLOUDY    80  73  80 SW12G18   29.97R
6HR MIN TEMP:  80; 6HR MAX TEMP:  84;

MT. CLEMENS    LGT RAIN  73  73 100 S12       29.95F
6HR MIN TEMP:  73; 6HR MAX TEMP:  82; 6HR PCP:  1.25;

PONTIAC        CLOUDY    77  72  84 SW10      29.96S
6HR MIN TEMP:  77; 6HR MAX TEMP:  82; 6HR PCP:  0.07;

PORT HURON     CLOUDY    73  72  94 CALM      29.96F
TRI CITIES     CLEAR     78  73  84 SW6       29.93R
6HR MIN TEMP:  76; 6HR MAX TEMP:  82; 6HR PCP: TRACE;

MIDLAND        FAIR      78  70  76 SW6       29.91S
6HR MIN TEMP:  75; 6HR MAX TEMP:  82;

TROY           CLOUDY    77  73  88 SW13G20   29.99R
SAGINAW HB     MOCLDY    79  72  78 S3        29.92S
$$
MIZ043>046-050>051-056>058-064>065-071>073-077>080-250100-
SOUTHWEST LOWER MICHIGAN

CITY           SKY/WX    TMP DP  RH WIND       PRES   REMARKS
BATTLE CREEK   MOCLDY    75  74  96 SW5       29.97R
6HR MIN TEMP:  74; 6HR MAX TEMP:  78; 6HR PCP:  0.01;

BENTON HARBOR  PTCLDY    79  70  74 SW7       29.94R
6HR MIN TEMP:  76; 6HR MAX TEMP:  83; 6HR PCP: TRACE;

BIG RAPIDS     CLOUDY    76  71  83 SW7       29.94R
6HR MIN TEMP:  76; 6HR MAX TEMP:  82;

COLDWATER      CLOUDY    76  73  90 CALM      29.97R
6HR MIN TEMP:  76; 6HR MAX TEMP:  80;

FREMONT        CLOUDY    74  72  93 SW5       29.93S
HOLLAND        CLOUDY    77  72  84 SW8       29.94S
6HR MIN TEMP:  76; 6HR MAX TEMP:  80;

GRAND RAPIDS   MOCLDY    78  70  76 W9        29.95R
6HR MIN TEMP:  77; 6HR MAX TEMP:  82; 6HR PCP: TRACE;

IONIA          FAIR      77  68  73 SW6       29.93S
KALAMAZOO      CLOUDY    78  73  84 S3        29.95R
6HR MIN TEMP:  78; 6HR MAX TEMP:  80; 6HR PCP: TRACE;

LUDINGTON      CLOUDY    76  71  85 S9        29.90R
6HR MIN TEMP:  75; 6HR MAX TEMP:  79;

MARSHALL       CLOUDY    77  75  94 S3        29.96S
MOUNT PLEASANT CLOUDY    79  71  76 SW6       29.92R
6HR MIN TEMP:  76; 6HR MAX TEMP:  82;

MUSKEGON       PTCLDY    76  73  91 SW9       29.93S
6HR MIN TEMP:  75; 6HR MAX TEMP:  80;

SOUTH HAVEN    PTCLDY    79  74  84 W5        29.94S
$$
MIZ016>042-250100-
NORTHERN LOWER MICHIGAN

CITY           SKY/WX    TMP DP  RH WIND       PRES   REMARKS
ALPENA         PTCLDY    79  68  69 S7        29.87S
6HR MIN TEMP:  74; 6HR MAX TEMP:  82; 6HR PCP: TRACE;

BEAVER ISLAND  CLOUDY    71  69  95 SW12G17   29.85R
6HR MIN TEMP:  69; 6HR MAX TEMP:  73;

BELLAIRE       CLOUDY    76  69  77 SW5       29.87R
6HR MIN TEMP:  73; 6HR MAX TEMP:  81;

CADILLAC       CLOUDY    75  68  79 SW10      29.93R
CHARLEVOIX     CLOUDY    76  68  78 SW10G16   29.90R
FRANKFORT      CLOUDY    75  69  84 S9        29.88S
GAYLORD        PTCLDY    76  66  71 SW10      29.90R
6HR MIN TEMP:  72; 6HR MAX TEMP:  80; 6HR PCP: TRACE;

GRAYLING       CLEAR     78  67  70 SW10      29.92R
HARBOR SPRINGS CLOUDY    73  69  88 W5        29.86S
HOUGHTON LAKE  MOCLDY    77  67  71 SW8       29.93R
6HR MIN TEMP:  74; 6HR MAX TEMP:  81;

MANISTEE       MOCLDY    76  70  82 SW5       29.89R
OSCODA         PTCLDY    78  69  74 S9        29.89S
6HR MIN TEMP:  74; 6HR MAX TEMP:  81;

PELLSTON       CLOUDY    73  68  84 SW7       29.86S
6HR MIN TEMP:  72; 6HR MAX TEMP:  78; 6HR PCP:  0.10;

ROGERS CITY    PTCLDY    78  69  75 S3        29.86S
TRAVERSE CITY  CLOUDY    79  68  69 SW8       29.86R
6HR MIN TEMP:  76; 6HR MAX TEMP:  82;

$$
MIZ007>008-015-250100-
EASTERN UPPER MICHIGAN

CITY           SKY/WX    TMP DP  RH WIND       PRES   REMARKS
KINROSS        LGT RAIN  70  68  94 W7        29.84S
6HR MIN TEMP:  65; 6HR MAX TEMP:  72; 6HR PCP:  0.02;

MACKINAC ISLAN CLOUDY    71  71 100 SW12G17   29.85S
6HR MIN TEMP:  67; 6HR MAX TEMP:  72; 6HR PCP:  0.08;

NEWBERRY       CLOUDY    70  69  97 SW8       29.82S
6HR MIN TEMP:  67; 6HR MAX TEMP:  72;

S. S. MARIE    CLOUDY    70  68  93 SW9       29.82S
6HR MIN TEMP:  66; 6HR MAX TEMP:  72; 6HR PCP:  0.03;

$$
MIZ004>006-011>014-085-250100-
CENTRAL UPPER MICHIGAN

CITY           SKY/WX    TMP DP  RH WIND       PRES   REMARKS
MANISTIQUE     CLOUDY    67  65  92 SW6       29.83R
6HR MIN TEMP:  66; 6HR MAX TEMP:  71;

ESCANABA       MOCLDY    74  70  87 W7        29.84R
6HR MIN TEMP:  74; 6HR MAX TEMP:  79;

MENOMINEE      MOCLDY   N/A N/A N/A SW3       29.87
SAWYER-GWINN   PTCLDY    73  68  83 E5        29.86R
$$
MIZ001>003-009>011-084-250100-
WESTERN UPPER MICHIGAN

CITY           SKY/WX    TMP DP  RH WIND       PRES   REMARKS
IRON MOUNTAIN  CLEAR     75  65  70 W5        29.87R
6HR MIN TEMP:  71; 6HR MAX TEMP:  78; 6HR PCP: TRACE;

HOUGHTON       CLOUDY    73  64  73 W14       29.81R
6HR MIN TEMP:  72; 6HR MAX TEMP:  76;

COPPER HARBOR    N/A     70  66  87 N5        29.79R
6HR MIN TEMP:  69; 6HR MAX TEMP:  75;

IRONWOOD       PTCLDY    74  65  73 W10       29.88R
6HR MIN TEMP:  72; 6HR MAX TEMP:  76; 6HR PCP:  0.01;

$$

ABBREVIATIONS USED IN REMARKS
   TC - TEMPERATURE IN CELSIUS
  WCI - WIND CHILL INDEX
   HX - HEAT INDEX
  VSB - VISIBILITY





USA.gov is the U.S. government's official web portal to all federal, state and local government web resources and services.